Regional Weather Roundup
Issued by NWS

Home | Current Version | Previous Version | Text Only | Print | Product List | Glossary On
Versions: 1 2 3 4 5 6 7 8 9 10 11 12 13 14 15 16 17 18 19 20 21 22 23 24 25 26 27 28 29 30 31 32 33 34 35 36 37 38 39 40 41 42 43 44 45 46 47 48 49 50
000
ASUS43 KBIS 240620
RWRND

NORTH DAKOTA REGIONAL WEATHER ROUNDUP
NATIONAL WEATHER SERVICE BISMARCK ND
100 AM CDT THU JUL 24 2014

NOTE: "FAIR" INDICATES FEW OR NO CLOUDS BELOW 12,000 FEET WITH NO
SIGNIFICANT WEATHER AND/OR OBSTRUCTIONS TO VISIBILITY.


NDZ001>003-009>011-017-240700-
NORTHWEST NORTH DAKOTA

CITY           SKY/WX    TMP DP  RH WIND       PRES   REMARKS
WILLISTON      MOCLDY    74  60  61 SE13G18   29.98F
6HR MIN TEMP:  74; 6HR MAX TEMP:  86;

MINOT          PTCLDY    65  62  90 SE14      30.07F
MINOT AFB      PTCLDY    64  64  99 SE10      30.07S
$$

NDZ018>021-031>035-040>046-240700-
SOUTHWEST NORTH DAKOTA

CITY           SKY/WX    TMP DP  RH WIND       PRES   REMARKS
BISMARCK       PTCLDY    67  58  72 SE13      30.08F
6HR MIN TEMP:  66; 6HR MAX TEMP:  82;

DICKINSON      CLEAR     67  56  67 SE18G26   30.00F
GARRISON         N/A     68  61  78 SE12      30.07S
6HR MIN TEMP:  68; 6HR MAX TEMP:  79;

HETTINGER ARPT PTCLDY    68  54  60 SE14      30.04F
$$

NDZ004>008-012>016-024-026-027-054-240700-
NORTHEAST NORTH DAKOTA

CITY           SKY/WX    TMP DP  RH WIND       PRES   REMARKS
GRAND FORKS    CLEAR     60  58  92 S3        30.16S
GRND FRKS AFB  PTCLDY    60  60 100 CALM      30.17S
DEVILS LAKE    CLEAR     63  55  77 SE12      30.13S
$$

NDZ022-023-025-028>030-036>039-047>053-240700-
SOUTHEAST NORTH DAKOTA

CITY           SKY/WX    TMP DP  RH WIND       PRES   REMARKS
FARGO          CLEAR     64  59  83 E7        30.15F
6HR MIN TEMP:  64; 6HR MAX TEMP:  77;

JAMESTOWN      CLEAR     64  59  83 SE10      30.15S
$$



USA.gov is the U.S. government's official web portal to all federal, state and local government web resources and services.